{"data":{"norad_id":63928,"intl_designator":"2025-098C","name":"STARLINK-33997","alt_names":[],"object_type":"PAYLOAD","status":"ACTIVE","operator":null,"country":"US","launch_date":"2025-05-13","launch_site_code":"AFWTR","launch_vehicle":null,"mission":null,"orbit_class":"UNKNOWN","rcs_meters":null,"size_class":null,"mass_kg":null,"dimensions":null,"purposes":["comms"],"wikipedia_slug":null,"has_3d_model":false,"image_url":null,"decayed_at":null,"tle_current":{"epoch":"2026-09-20T22:02:05.455680Z","epoch_age_seconds":110966,"freshness":"FRESH","line1":"1 63928U 25098C   26263.91811870  .00019073  00000+0  64887-3 0  9991","line2":"2 63928  70.0005 139.9121 0002827 268.6403  91.4449 15.30440424 75871","mean_motion":15.30440424,"eccentricity":0.0002827,"inclination_deg":70.0005,"raan_deg":139.9121,"arg_perigee_deg":268.6403,"mean_anomaly_deg":91.4449,"bstar":0.00064887,"rev_number":7587,"period_min":94.090562260266,"perigee_km":472.56006095387,"apogee_km":476.43454038747,"semimajor_km":6852.6343006707,"source":"CELESTRAK","updated_at":"2026-09-21T09:00:35.149157Z"}}}